Tracking 33180 objects as of 11-Feb-2026
HD Live streaming from Space Station
objects crossing your sky now

LEMUR 2 NEUROSPICY

Track LEMUR 2 NEUROSPICY now!
10-day predictions
LEMUR 2 NEUROSPICY is classified as:


NORAD ID: 63355
Int'l Code: 2025-061F
Perigee: 522.6 km
Apogee: 545.5 km
Inclination: 97.5 °
Period: 95.2 minutes
Semi major axis: 6905 km
RCS: Unknown
Launch date: March 26, 2025
Source: United States (US)
Launch site: Rocket Lab Launch Complex (RLLC)
Your satellite tracking list
Your tracking list is empty




NASA's NSSDC Master Catalog

Two Line Element Set (TLE):
1 63355U 25061E   26042.37884693  .00005426  00000-0  30959-3 0  9994
2 63355  97.5499  19.0658 0016590 340.5340  19.5255 15.13058398 48581
Source of the keplerian elements: AFSPC